Project,Study,Ord_Occ,Event_Num,Cast_ID,Date_Time_UTC,Date_Time_PST,Lat_Dec,Lon_Dec,Sta_ID,Line,Sta,Depth,Pressure,PrQ,Temp1,Temp1Q,Temp2,Temp2Q,TempAve,Salt1,Salt1Q,Salt1_Corr,Salt2,Salt2Q,Salt2_Corr,SaltAve_Corr,Ox1,Ox1Q,Ox1_CruiseCorr,Ox1_StaCorr,Ox2,Ox2Q,Ox2_CruiseCorr,Ox2_StaCorr,OxAve_StaCorr,Ox1uM,Ox1uM_CruiseCorr,Ox1uM_StaCorr,Ox2uM,Ox2uM_CruiseCorr,Ox2uM_StaCorr,OxAveuM_StaCorr,FluorV,FluorQ,EstChl_CruiseCorr,EstChl_StaCorr,ISUSV,ISUSQ,EstNO3_CruiseCorr,EstNO3_StaCorr,SigThetaTS1,SigThetaTS1Q,SigThetaTS2,SigThetaTS2Q,BAT,XMiss,TransQ,pH,pHQ,SPAR,SPARQ,PAR,PARQ,PoT1,PoT2,DynHt,SVA,OxSat1,OxSat2,BTL_Depth,BTL_Temp,SaltB,OxB,OxBuM,Chl-a,Phaeo,NO3,NO2,NH4,PO4,SIL
CalCOFI,2007SR,025,26,2007_025u,18-Jul-2020 10:23:33,18-Jul-2020 02:23:33,32.65182,-119.48166,090.0 053.0,090.0,053.0,516.000,520.302,,6.1617,,6.1612,,6.1615,34.3214,,34.3216,34.3231,,34.3247,34.3232,0.2890,,0.2843,0.3129,1.8536,,0.4839,0.4831,0.3980,12.568,12.6316,38.8844,80.605,,45.5587,42.2216,0.0319,,,,,,,,27.0017,,27.0031,,0.6361,85.2976,,7.535,,1.9043E+00,,1.0000E-12,,6.1157,6.1152,0.8122,,4.180,26.810,,,,,,,,,,,,
CalCOFI,2007SR,025,26,2007_025u,18-Jul-2020 10:23:36,18-Jul-2020 02:23:36,32.65182,-119.48166,090.0 053.0,090.0,053.0,515.000,519.292,,6.1623,,6.1623,,6.1623,34.3214,,34.3216,34.3228,,34.3244,34.3230,0.2886,,0.2839,0.3124,1.8514,,0.4786,0.4767,0.3946,12.550,12.6128,38.8737,80.511,,45.4140,42.1439,0.0313,,,,,,,,27.0016,,27.0028,,0.6361,85.2982,,7.534,,1.9043E+00,,1.0000E-12,,6.1163,6.1163,0.8122,,4.175,26.779,515,6.162,34.3228,0.332,14.48,,,,,,,77.88
CalCOFI,2007SR,025,26,2007_025u,18-Jul-2020 10:24:15,18-Jul-2020 02:24:15,32.65180,-119.48166,090.0 053.0,090.0,053.0,514.000,518.283,,6.1632,,6.1629,,6.1631,34.3215,,34.3217,34.3228,,34.3244,34.3231,0.2892,,0.2845,0.3131,1.8257,,0.4173,0.4013,0.3572,12.577,12.6410,38.8897,79.391,,43.6896,41.2897,0.0319,,,,,,,,27.0015,,27.0027,,0.6363,85.2926,,7.535,,1.9043E+00,,1.0000E-12,,6.1173,6.1170,0.8154,,4.183,26.407,,,,,,,,,,,,
CalCOFI,2007SR,025,26,2007_025u,18-Jul-2020 10:24:42,18-Jul-2020 02:24:42,32.65182,-119.48166,090.0 053.0,090.0,053.0,513.000,517.273,,6.1653,,6.1656,,6.1655,34.3212,,34.3214,34.3223,,34.3239,34.3227,0.2890,,0.2843,0.3129,1.8186,,0.4003,0.3805,0.3467,12.569,12.6327,38.8850,79.082,,43.2138,41.0494,0.0315,,,,,,,,27.0011,,27.0019,,0.6364,85.2913,,7.536,,1.9043E+00,,1.0000E-12,,6.1195,6.1199,0.8176,,4.181,26.306,,,,,,,,,,,,
CalCOFI,2007SR,025,26,2007_025u,18-Jul-2020 10:24:42,18-Jul-2020 02:24:42,32.65182,-119.48166,090.0 053.0,090.0,053.0,512.000,516.264,,6.1664,,6.1667,,6.1666,34.3211,,34.3213,34.3222,,34.3238,34.3226,0.2890,,0.2843,0.3129,1.8157,,0.3934,0.3720,0.3425,12.567,12.6306,38.8838,78.959,,43.0244,40.9541,0.0324,,,,,,,,27.0008,,27.0017,,0.6362,85.2958,,7.536,,1.9043E+00,,1.0000E-12,,6.1207,6.1210,0.8176,,4.180,26.265,,,,,,,,,,,,
CalCOFI,2007SR,025,26,2007_025u,18-Jul-2020 10:24:43,18-Jul-2020 02:24:43,32.65181,-119.48167,090.0 053.0,090.0,053.0,511.000,515.254,,6.1678,,6.1680,,6.1679,34.3209,,34.3211,34.3222,,34.3238,34.3225,0.2897,,0.2850,0.3136,1.8175,,0.3977,0.3773,0.3455,12.599,12.6640,38.9027,79.037,,43.1445,41.0236,0.0310,,,,,,,,27.0005,,27.0015,,0.6364,85.2914,,7.537,,1.9043E+00,,1.0000E-12,,6.1222,6.1224,0.8176,,4.191,26.292,,,,,,,,,,,,
CalCOFI,2007SR,025,26,2007_025u,18-Jul-2020 10:24:44,18-Jul-2020 02:24:44,32.65180,-119.48168,090.0 053.0,090.0,053.0,510.000,514.245,,6.1693,,6.1695,,6.1694,34.3209,,34.3211,34.3221,,34.3237,34.3224,0.2930,,0.2885,0.3171,1.8144,,0.3903,0.3682,0.3427,12.740,12.8112,38.9861,78.902,,42.9367,40.9614,0.0320,,,,,,,,27.0003,,27.0012,,0.6364,85.2913,,7.536,,1.9043E+00,,1.0000E-12,,6.1238,6.1240,0.8176,,4.238,26.248,,,,,,,,,,,,
CalCOFI,2007SR,025,26,2007_025u,18-Jul-2020 10:24:45,18-Jul-2020 02:24:45,32.65180,-119.48167,090.0 053.0,090.0,053.0,509.000,513.235,,6.1706,,6.1707,,6.1707,34.3208,,34.3210,34.3222,,34.3238,34.3224,0.2878,,0.2830,0.3116,1.8159,,0.3939,0.3726,0.3421,12.514,12.5753,38.8524,78.965,,43.0337,40.9431,0.0314,,,,,,,,27.0000,,27.0011,,0.6364,85.2913,,7.537,,1.9043E+00,,1.0000E-12,,6.1252,6.1253,0.8176,,4.163,26.270,,,,,,,,,,,,
CalCOFI,2007SR,025,26,2007_025u,18-Jul-2020 10:24:47,18-Jul-2020 02:24:47,32.65182,-119.48166,090.0 053.0,090.0,053.0,508.000,512.225,,6.1719,,6.1718,,6.1719,34.3206,,34.3208,34.3220,,34.3236,34.3222,0.2907,,0.2861,0.3147,1.8156,,0.3932,0.3717,0.3432,12.641,12.7078,38.9275,78.954,,43.0167,40.9721,0.0321,,,,,,,,26.9997,,27.0008,,0.6405,85.2029,,7.537,,1.9043E+00,,1.0000E-12,,6.1266,6.1265,0.8176,,4.205,26.267,,,,,,,,,,,,
CalCOFI,2007SR,025,26,2007_025u,18-Jul-2020 10:24:48,18-Jul-2020 02:24:48,32.65182,-119.48166,090.0 053.0,090.0,053.0,507.000,511.216,,6.1729,,6.1727,,6.1728,34.3207,,34.3209,34.3220,,34.3236,34.3223,0.2952,,0.2908,0.3194,1.8153,,0.3925,0.3708,0.3451,12.838,12.9135,39.0440,78.941,,42.9967,41.0204,0.0319,,,,,,,,26.9996,,27.0007,,0.6364,85.2919,,7.536,,1.9043E+00,,1.0000E-12,,6.1277,6.1275,0.8176,,4.271,26.263,,,,,,,,,,,,
CalCOFI,2007SR,025,26,2007_025u,18-Jul-2020 10:24:49,18-Jul-2020 02:24:49,32.65182,-119.48166,090.0 053.0,090.0,053.0,506.000,510.206,,6.1756,,6.1763,,6.1760,34.3207,,34.3209,34.3218,,34.3234,34.3222,0.2943,,0.2898,0.3185,1.8119,,0.3843,0.3608,0.3397,12.795,12.8686,39.0186,78.793,,42.7688,40.8937,0.0315,,,,,,,,26.9993,,27.0001,,0.6364,85.2923,,7.537,,1.9043E+00,,1.0000E-12,,6.1304,6.1311,0.8176,,4.257,26.216,,,,,,,,,,,,
CalCOFI,2007SR,025,26,2007_025u,18-Jul-2020 10:24:50,18-Jul-2020 02:24:50,32.65182,-119.48166,090.0 053.0,090.0,053.0,505.000,509.197,,6.1805,,6.1808,,6.1807,34.3203,,34.3205,34.3215,,34.3231,34.3218,0.2922,,0.2876,0.3162,1.8101,,0.3801,0.3556,0.3359,12.707,12.7767,38.9666,78.715,,42.6487,40.8077,0.0314,,,,,,,,26.9983,,26.9992,,0.6364,85.2913,,7.537,,1.9043E+00,,1.0000E-12,,6.1355,6.1357,0.8176,,4.228,26.193,,,,,,,,,,,,
CalCOFI,2007SR,025,26,2007_025u,18-Jul-2020 10:24:51,18-Jul-2020 02:24:51,32.65182,-119.48166,090.0 053.0,090.0,053.0,504.000,508.187,,6.1835,,6.1834,,6.1835,34.3200,,34.3202,34.3212,,34.3228,34.3215,0.2921,,0.2875,0.3161,1.8115,,0.3834,0.3597,0.3379,12.704,12.7736,38.9648,78.774,,42.7396,40.8522,0.0317,,,,,,,,26.9977,,26.9987,,0.6364,85.2913,,7.537,,1.9043E+00,,1.0000E-12,,6.1385,6.1384,0.8176,,4.228,26.214,,,,,,,,,,,,
CalCOFI,2007SR,025,26,2007_025u,18-Jul-2020 10:24:52,18-Jul-2020 02:24:52,32.65182,-119.48166,090.0 053.0,090.0,053.0,503.000,507.178,,6.1852,,6.1850,,6.1851,34.3199,,34.3201,34.3213,,34.3229,34.3215,0.2921,,0.2875,0.3161,1.8080,,0.3750,0.3494,0.3328,12.702,12.7715,38.9636,78.622,,42.5055,40.7346,0.0317,,,,,,,,26.9974,,26.9985,,0.6364,85.2913,,7.537,,1.9043E+00,,1.0000E-12,,6.1403,6.1401,0.8176,,4.227,26.164,,,,,,,,,,,,
CalCOFI,2007SR,025,26,2007_025u,18-Jul-2020 10:24:53,18-Jul-2020 02:24:53,32.65180,-119.48166,090.0 053.0,090.0,053.0,502.000,506.168,,6.1870,,6.1871,,6.1871,34.3198,,34.3200,34.3211,,34.3227,34.3214,0.2942,,0.2897,0.3184,1.8081,,0.3753,0.3497,0.3341,12.792,12.8655,39.0168,78.627,,42.5132,40.7650,0.0317,,,,,,,,26.9970,,26.9980,,0.6367,85.2854,,7.537,,1.9043E+00,,1.0000E-12,,6.1422,6.1423,0.8176,,4.257,26.167,,,,,,,,,,,,
CalCOFI,2007SR,025,26,2007_025u,18-Jul-2020 10:24:53,18-Jul-2020 02:24:53,32.65180,-119.48166,090.0 053.0,090.0,053.0,501.000,505.159,,6.1881,,6.1881,,6.1881,34.3197,,34.3199,34.3210,,34.3226,34.3213,0.3005,,0.2963,0.3250,1.8092,,0.3779,0.3529,0.3390,13.068,13.1536,39.1800,78.675,,42.5871,40.8836,0.0312,,,,,,,,26.9968,,26.9978,,0.6366,85.2861,,7.538,,1.9043E+00,,1.0000E-12,,6.1433,6.1434,0.8176,,4.349,26.184,,,,,,,,,,,,
CalCOFI,2007SR,025,26,2007_025u,18-Jul-2020 10:24:54,18-Jul-2020 02:24:54,32.65181,-119.48166,090.0 053.0,090.0,053.0,500.000,504.149,,6.2007,,6.2004,,6.2006,34.3195,,34.3197,34.3210,,34.3226,34.3212,0.2975,,0.2932,0.3219,1.8060,,0.3703,0.3435,0.3327,12.937,13.0168,39.1025,78.534,,42.3700,40.7363,0.0316,,,,,,,,26.9950,,26.9962,,0.6367,85.2838,,7.537,,1.9043E+00,,1.0000E-12,,6.1560,6.1557,0.8176,,4.307,26.144,,,,,,,,,,,,
CalCOFI,2007SR,025,26,2007_025u,18-Jul-2020 10:24:56,18-Jul-2020 02:24:56,32.65182,-119.48166,090.0 053.0,090.0,053.0,499.000,503.140,,6.2010,,6.2074,,6.2042,34.3196,,34.3198,34.3204,,34.3220,34.3209,0.2993,,0.2950,0.3238,1.8069,,0.3724,0.3462,0.3350,13.014,13.0972,39.1481,78.574,,42.4316,40.7899,0.0313,,,,,,,,26.9951,,26.9949,,0.6368,85.2818,,7.538,,1.9043E+00,,1.0000E-12,,6.1564,6.1628,0.8176,,4.333,26.162,,,,,,,,,,,,
CalCOFI,2007SR,025,26,2007_025u,18-Jul-2020 10:24:58,18-Jul-2020 02:24:58,32.65182,-119.48166,090.0 053.0,090.0,053.0,498.000,502.130,,6.2194,,6.2183,,6.2189,34.3186,,34.3188,34.3200,,34.3216,34.3202,0.3026,,0.2985,0.3273,1.8059,,0.3700,0.3433,0.3353,13.159,13.2486,39.2338,78.533,,42.3685,40.8012,0.0317,,,,,,,,26.9919,,26.9932,,0.6364,85.2909,,7.537,,1.9043E+00,,1.0000E-12,,6.1748,6.1737,0.8176,,4.383,26.155,,,,,,,,,,,,
CalCOFI,2007SR,025,26,2007_025u,18-Jul-2020 10:24:59,18-Jul-2020 02:24:59,32.65180,-119.48166,090.0 053.0,090.0,053.0,497.000,501.120,,6.2396,,6.2375,,6.2386,34.3178,,34.3180,34.3194,,34.3210,34.3195,0.2988,,0.2945,0.3232,1.8046,,0.3669,0.3394,0.3313,12.994,13.0763,39.1363,78.475,,42.2792,40.7078,0.0319,,,,,,,,26.9886,,26.9902,,0.6371,85.2759,,7.538,,1.9043E+00,,1.0000E-12,,6.1950,6.1930,0.8176,,4.330,26.147,,,,,,,,,,,,
CalCOFI,2007SR,025,26,2007_025u,18-Jul-2020 10:24:59,18-Jul-2020 02:24:59,32.65180,-119.48166,090.0 053.0,090.0,053.0,496.000,500.111,,6.2456,,6.2463,,6.2460,34.3171,,34.3173,34.3184,,34.3200,34.3187,0.2995,,0.2952,0.3240,1.8042,,0.3660,0.3383,0.3312,13.024,13.1077,39.1540,78.460,,42.2561,40.7051,0.0325,,,,,,,,26.9874,,26.9883,,0.6375,85.2675,,7.537,,1.9043E+00,,1.0000E-12,,6.2011,6.2018,0.8176,,4.340,26.147,,,,,,,,,,,,
CalCOFI,2007SR,025,26,2007_025u,18-Jul-2020 10:25:00,18-Jul-2020 02:25:00,32.65180,-119.48166,090.0 053.0,090.0,053.0,495.000,499.101,,6.2489,,6.2491,,6.2490,34.3168,,34.3170,34.3181,,34.3197,34.3184,0.3046,,0.3006,0.3294,1.8042,,0.3660,0.3383,0.3339,13.244,13.3373,39.2841,78.460,,42.2561,40.7701,0.0313,,,,,,,,26.9867,,26.9877,,0.6382,85.2529,,7.537,,1.9043E+00,,1.0000E-12,,6.2045,6.2047,0.8176,,4.414,26.149,,,,,,,,,,,,
CalCOFI,2007SR,025,26,2007_025u,18-Jul-2020 10:25:01,18-Jul-2020 02:25:01,32.65180,-119.48166,090.0 053.0,090.0,053.0,494.000,498.092,,6.2499,,6.2498,,6.2499,34.3168,,34.3170,34.3181,,34.3197,34.3184,0.3082,,0.3043,0.3332,1.8036,,0.3645,0.3365,0.3349,13.403,13.5033,39.3781,78.434,,42.2161,40.7971,0.0319,,,,,,,,26.9865,,26.9875,,0.6381,85.2538,,7.537,,1.9043E+00,,1.0000E-12,,6.2055,6.2055,0.8176,,4.467,26.140,,,,,,,,,,,,
CalCOFI,2007SR,025,26,2007_025u,18-Jul-2020 10:25:01,18-Jul-2020 02:25:01,32.65180,-119.48166,090.0 053.0,090.0,053.0,493.000,497.083,,6.2499,,6.2500,,6.2500,34.3168,,34.3170,34.3180,,34.3196,34.3183,0.3036,,0.2995,0.3283,1.8034,,0.3641,0.3359,0.3321,13.204,13.2956,39.2604,78.423,,42.1991,40.7298,0.0316,,,,,,,,26.9865,,26.9874,,0.6376,85.2648,,7.537,,1.9043E+00,,1.0000E-12,,6.2057,6.2058,0.8176,,4.400,26.137,,,,,,,,,,,,
CalCOFI,2007SR,025,26,2007_025u,18-Jul-2020 10:25:02,18-Jul-2020 02:25:02,32.65180,-119.48166,090.0 053.0,090.0,053.0,492.000,496.073,,6.2504,,6.2505,,6.2505,34.3169,,34.3171,34.3181,,34.3197,34.3184,0.3022,,0.2981,0.3268,1.8025,,0.3619,0.3333,0.3301,13.143,13.2319,39.2243,78.386,,42.1422,40.6833,0.0317,,,,,,,,26.9865,,26.9874,,0.6383,85.2503,,7.537,,1.9043E+00,,1.0000E-12,,6.2063,6.2064,0.8176,,4.380,26.125,,,,,,,,,,,,
CalCOFI,2007SR,025,26,2007_025u,18-Jul-2020 10:25:04,18-Jul-2020 02:25:04,32.65181,-119.48166,090.0 053.0,090.0,053.0,491.000,495.064,,6.2509,,6.2509,,6.2509,34.3167,,34.3169,34.3180,,34.3196,34.3183,0.3022,,0.2981,0.3268,1.8030,,0.3631,0.3348,0.3308,13.140,13.2287,39.2226,78.406,,42.1730,40.6978,0.0319,,,,,,,,26.9863,,26.9873,,0.6379,85.2588,,7.537,,1.9043E+00,,1.0000E-12,,6.2069,6.2068,0.8176,,4.379,26.132,,,,,,,,,,,,
CalCOFI,2007SR,025,26,2007_025u,18-Jul-2020 10:25:05,18-Jul-2020 02:25:05,32.65182,-119.48166,090.0 053.0,090.0,053.0,490.000,494.054,,6.2511,,6.2508,,6.2510,34.3167,,34.3169,34.3179,,34.3195,34.3182,0.3021,,0.2980,0.3267,1.8027,,0.3624,0.3339,0.3303,13.138,13.2267,39.2214,78.391,,42.1499,40.6857,0.0317,,,,,,,,26.9862,,26.9872,,0.6376,85.2656,,7.537,,1.9043E+00,,1.0000E-12,,6.2072,6.2069,0.8176,,4.379,26.127,,,,,,,,,,,,
CalCOFI,2007SR,025,26,2007_025u,18-Jul-2020 10:25:06,18-Jul-2020 02:25:06,32.65180,-119.48166,090.0 053.0,090.0,053.0,489.000,493.045,,6.2535,,6.2525,,6.2530,34.3165,,34.3167,34.3177,,34.3193,34.3180,0.3021,,0.2980,0.3267,1.8013,,0.3590,0.3298,0.3283,13.136,13.2246,39.2202,78.334,,42.0621,40.6412,0.0326,,,,,,,,26.9858,,26.9868,,0.6375,85.2677,,7.537,,1.9043E+00,,1.0000E-12,,6.2096,6.2087,0.8176,,4.378,26.109,,,,,,,,,,,,
CalCOFI,2007SR,025,26,2007_025u,18-Jul-2020 10:25:07,18-Jul-2020 02:25:07,32.65180,-119.48166,090.0 053.0,090.0,053.0,488.000,492.035,,6.2577,,6.2574,,6.2576,34.3162,,34.3164,34.3174,,34.3190,34.3177,0.3021,,0.2980,0.3267,1.8009,,0.3581,0.3286,0.3277,13.136,13.2246,39.2202,78.314,,42.0313,40.6258,0.0315,,,,,,,,26.9849,,26.9860,,0.6375,85.2677,,7.537,,1.9043E+00,,1.0000E-12,,6.2139,6.2136,0.8176,,4.379,26.105,,,,,,,,,,,,
CalCOFI,2007SR,025,26,2007_025u,18-Jul-2020 10:25:08,18-Jul-2020 02:25:08,32.65180,-119.48166,090.0 053.0,090.0,053.0,487.000,491.026,,6.2584,,6.2585,,6.2585,34.3162,,34.3164,34.3173,,34.3189,34.3177,0.3044,,0.3004,0.3292,1.7961,,0.3466,0.3145,0.3219,13.237,13.3300,39.2799,78.107,,41.7126,40.4963,0.0322,,,,,,,,26.9849,,26.9857,,0.6375,85.2677,,7.537,,1.9043E+00,,1.0000E-12,,6.2147,6.2148,0.8176,,4.412,26.036,,,,,,,,,,,,
CalCOFI,2007SR,025,26,2007_025u,18-Jul-2020 10:25:09,18-Jul-2020 02:25:09,32.65180,-119.48166,090.0 053.0,090.0,053.0,486.000,490.016,,6.2600,,6.2602,,6.2601,34.3161,,34.3163,34.3173,,34.3189,34.3176,0.3105,,0.3067,0.3356,1.7966,,0.3478,0.3160,0.3258,13.503,13.6077,39.4372,78.130,,41.7480,40.5926,0.0314,,,,,,,,26.9845,,26.9854,,0.6379,85.2582,,7.537,,1.9043E+00,,1.0000E-12,,6.2164,6.2166,0.8176,,4.501,26.045,,,,,,,,,,,,
CalCOFI,2007SR,025,26,2007_025u,18-Jul-2020 10:25:10,18-Jul-2020 02:25:10,32.65180,-119.48166,090.0 053.0,090.0,053.0,485.000,489.007,,6.2611,,6.2611,,6.2611,34.3160,,34.3162,34.3170,,34.3186,34.3174,0.3073,,0.3034,0.3322,1.8048,,0.3674,0.3400,0.3361,13.363,13.4615,39.3544,78.484,,42.2931,40.8238,0.0311,,,,,,,,26.9843,,26.9852,,0.6376,85.2666,,7.537,,1.9043E+00,,1.0000E-12,,6.2175,6.2176,0.8176,,4.455,26.163,,,,,,,,,,,,
CalCOFI,2007SR,025,26,2007_025u,18-Jul-2020 10:25:11,18-Jul-2020 02:25:11,32.65180,-119.48166,090.0 053.0,090.0,053.0,484.000,487.997,,6.2616,,6.2614,,6.2615,34.3158,,34.3160,34.3171,,34.3187,34.3174,0.3044,,0.3004,0.3292,1.8017,,0.3600,0.3309,0.3301,13.236,13.3290,39.2793,78.350,,42.0867,40.6830,0.0314,,,,,,,,26.9841,,26.9852,,0.6379,85.2596,,7.537,,1.9043E+00,,1.0000E-12,,6.2181,6.2180,0.8176,,4.412,26.119,,,,,,,,,,,,
CalCOFI,2007SR,025,26,2007_025u,18-Jul-2020 10:25:12,18-Jul-2020 02:25:12,32.65180,-119.48166,090.0 053.0,090.0,053.0,483.000,486.988,,6.2619,,6.2617,,6.2618,34.3158,,34.3160,34.3170,,34.3186,34.3173,0.3067,,0.3028,0.3316,1.8005,,0.3571,0.3274,0.3295,13.339,13.4365,39.3402,78.298,,42.0067,40.6735,0.0320,,,,,,,,26.9841,,26.9850,,0.6375,85.2677,,7.537,,1.9043E+00,,1.0000E-12,,6.2186,6.2183,0.8176,,4.447,26.102,,,,,,,,,,,,
CalCOFI,2007SR,025,26,2007_025u,18-Jul-2020 10:25:13,18-Jul-2020 02:25:13,32.65180,-119.48166,090.0 053.0,090.0,053.0,482.000,485.978,,6.2609,,6.2609,,6.2609,34.3153,,34.3155,34.3164,,34.3180,34.3168,0.3056,,0.3016,0.3304,1.8003,,0.3567,0.3268,0.3286,13.288,13.3832,39.3101,78.290,,41.9944,40.6523,0.0317,,,,,,,,26.9838,,26.9846,,0.6375,85.2677,,7.537,,1.9043E+00,,1.0000E-12,,6.2176,6.2177,0.8176,,4.430,26.099,,,,,,,,,,,,
CalCOFI,2007SR,025,26,2007_025u,18-Jul-2020 10:25:14,18-Jul-2020 02:25:14,32.65180,-119.48166,090.0 053.0,090.0,053.0,481.000,484.969,,6.2595,,6.2598,,6.2597,34.3148,,34.3150,34.3160,,34.3176,34.3163,0.3056,,0.3016,0.3304,1.8001,,0.3562,0.3262,0.3283,13.288,13.3832,39.3101,78.282,,41.9820,40.6461,0.0317,,,,,,,,26.9836,,26.9845,,0.6371,85.2754,,7.537,,1.9043E+00,,1.0000E-12,,6.2163,6.2167,0.8176,,4.429,26.095,,,,,,,,,,,,
CalCOFI,2007SR,025,26,2007_025u,18-Jul-2020 10:25:15,18-Jul-2020 02:25:15,32.65180,-119.48166,090.0 053.0,090.0,053.0,480.000,483.960,,6.2591,,6.2592,,6.2592,34.3146,,34.3148,34.3157,,34.3173,34.3161,0.3095,,0.3057,0.3346,1.7992,,0.3540,0.3236,0.3291,13.458,13.5607,39.4106,78.241,,41.9189,40.6648,0.0309,,,,,,,,26.9834,,26.9843,,0.6363,85.2937,,7.537,,1.9043E+00,,1.0000E-12,,6.2161,6.2162,0.8176,,4.486,26.081,,,,,,,,,,,,
CalCOFI,2007SR,025,26,2007_025u,18-Jul-2020 10:25:16,18-Jul-2020 02:25:16,32.65180,-119.48166,090.0 053.0,090.0,053.0,479.000,482.950,,6.2596,,6.2597,,6.2597,34.3145,,34.3147,34.3155,,34.3171,34.3159,0.3146,,0.3110,0.3400,1.7978,,0.3507,0.3195,0.3298,13.683,13.7956,39.5436,78.182,,41.8281,40.6859,0.0311,,,,,,,,26.9833,,26.9840,,0.6356,85.3085,,7.537,,1.9043E+00,,1.0000E-12,,6.2167,6.2168,0.8176,,4.561,26.062,,,,,,,,,,,,
CalCOFI,2007SR,025,26,2007_025u,18-Jul-2020 10:25:17,18-Jul-2020 02:25:17,32.65180,-119.48166,090.0 053.0,090.0,053.0,478.000,481.941,,6.2597,,6.2598,,6.2598,34.3142,,34.3144,34.3153,,34.3169,34.3157,0.3131,,0.3095,0.3384,1.7997,,0.3552,0.3251,0.3318,13.617,13.7267,39.5046,78.265,,41.9559,40.7303,0.0316,,,,,,,,26.9830,,26.9839,,0.6361,85.2974,,7.537,,1.9043E+00,,1.0000E-12,,6.2168,6.2169,0.8176,,4.539,26.089,,,,,,,,,,,,
CalCOFI,2007SR,025,26,2007_025u,18-Jul-2020 10:25:18,18-Jul-2020 02:25:18,32.65180,-119.48166,090.0 053.0,090.0,053.0,477.000,480.931,,6.2606,,6.2604,,6.2605,34.3142,,34.3144,34.3153,,34.3169,34.3157,0.3170,,0.3135,0.3425,1.7992,,0.3540,0.3236,0.3331,13.784,13.9010,39.6034,78.241,,41.9189,40.7612,0.0319,,,,,,,,26.9829,,26.9838,,0.6354,85.3132,,7.537,,1.9043E+00,,1.0000E-12,,6.2179,6.2176,0.8176,,4.595,26.082,,,,,,,,,,,,
CalCOFI,2007SR,025,26,2007_025u,18-Jul-2020 10:25:19,18-Jul-2020 02:25:19,32.65180,-119.48166,090.0 053.0,090.0,053.0,476.000,479.922,,6.2645,,6.2641,,6.2643,34.3137,,34.3139,34.3149,,34.3165,34.3152,0.3141,,0.3105,0.3394,1.7990,,0.3536,0.3230,0.3312,13.660,13.7716,39.5300,78.231,,41.9035,40.7168,0.0319,,,,,,,,26.9820,,26.9830,,0.6355,85.3104,,7.537,,1.9043E+00,,1.0000E-12,,6.2218,6.2214,0.8176,,4.554,26.080,,,,,,,,,,,,
CalCOFI,2007SR,025,26,2007_025u,18-Jul-2020 10:25:20,18-Jul-2020 02:25:20,32.65180,-119.48166,090.0 053.0,090.0,053.0,475.000,478.913,,6.2664,,6.2661,,6.2663,34.3126,,34.3128,34.3138,,34.3154,34.3141,0.3124,,0.3087,0.3376,1.7977,,0.3504,0.3192,0.3284,13.586,13.6943,39.4863,78.177,,41.8204,40.6534,0.0317,,,,,,,,26.9808,,26.9819,,0.6350,85.3222,,7.537,,1.9043E+00,,1.0000E-12,,6.2238,6.2235,0.8176,,4.529,26.064,,,,,,,,,,,,
CalCOFI,2007SR,025,26,2007_025u,18-Jul-2020 10:25:21,18-Jul-2020 02:25:21,32.65180,-119.48166,090.0 053.0,090.0,053.0,474.000,477.903,,6.2701,,6.2699,,6.2700,34.3120,,34.3122,34.3133,,34.3149,34.3136,0.3131,,0.3095,0.3384,1.7966,,0.3478,0.3160,0.3272,13.618,13.7277,39.5052,78.130,,41.7480,40.6266,0.0308,,,,,,,,26.9799,,26.9809,,0.6348,85.3249,,7.537,,1.9043E+00,,1.0000E-12,,6.2276,6.2274,0.8176,,4.541,26.050,,,,,,,,,,,,
CalCOFI,2007SR,025,26,2007_025u,18-Jul-2020 10:25:22,18-Jul-2020 02:25:22,32.65180,-119.48166,090.0 053.0,090.0,053.0,473.000,476.894,,6.2781,,6.2773,,6.2777,34.3113,,34.3115,34.3127,,34.3143,34.3129,0.3203,,0.3170,0.3460,1.7933,,0.3399,0.3063,0.3262,13.930,14.0534,39.6897,77.984,,41.5232,40.6065,0.0320,,,,,,,,26.9783,,26.9795,,0.6342,85.3388,,7.537,,1.9043E+00,,1.0000E-12,,6.2357,6.2349,0.8176,,4.645,26.006,,,,,,,,,,,,
CalCOFI,2007SR,025,26,2007_025u,18-Jul-2020 10:25:23,18-Jul-2020 02:25:23,32.65180,-119.48166,090.0 053.0,090.0,053.0,472.000,475.884,,6.2846,,6.2834,,6.2840,34.3105,,34.3107,34.3119,,34.3135,34.3121,0.3177,,0.3143,0.3433,1.8009,,0.3581,0.3286,0.3360,13.815,13.9334,39.6217,78.314,,42.0313,40.8265,0.0314,,,,,,,,26.9769,,26.9780,,0.6339,85.3459,,7.537,,1.9043E+00,,1.0000E-12,,6.2422,6.2410,0.8176,,4.608,26.119,,,,,,,,,,,,
CalCOFI,2007SR,025,26,2007_025u,18-Jul-2020 10:25:24,18-Jul-2020 02:25:24,32.65180,-119.48166,090.0 053.0,090.0,053.0,471.000,474.875,,6.2905,,6.2905,,6.2905,34.3101,,34.3103,34.3114,,34.3130,34.3117,0.3157,,0.3122,0.3411,1.7962,,0.3469,0.3148,0.3280,13.731,13.8457,39.5720,78.113,,41.7218,40.6469,0.0316,,,,,,,,26.9757,,26.9767,,0.6339,85.3451,,7.537,,1.9043E+00,,1.0000E-12,,6.2482,6.2482,0.8176,,4.580,26.056,,,,,,,,,,,,
CalCOFI,2007SR,025,26,2007_025u,18-Jul-2020 10:25:25,18-Jul-2020 02:25:25,32.65180,-119.48166,090.0 053.0,090.0,053.0,470.000,473.866,,6.2952,,6.2949,,6.2951,34.3100,,34.3102,34.3111,,34.3127,34.3115,0.3203,,0.3170,0.3460,1.7938,,0.3411,0.3078,0.3269,13.931,14.0545,39.6903,78.006,,41.5571,40.6237,0.0316,,,,,,,,26.9750,,26.9759,,0.6337,85.3485,,7.537,,1.9043E+00,,1.0000E-12,,6.2530,6.2527,0.8176,,4.647,26.023,,,,,,,,,,,,
CalCOFI,2007SR,025,26,2007_025u,18-Jul-2020 10:25:26,18-Jul-2020 02:25:26,32.65180,-119.48166,090.0 053.0,090.0,053.0,469.000,472.856,,6.2993,,6.2993,,6.2993,34.3096,,34.3098,34.3108,,34.3124,34.3111,0.3250,,0.3219,0.3510,1.7908,,0.3340,0.2990,0.3250,14.133,14.2653,39.8097,77.877,,41.3585,40.5841,0.0316,,,,,,,,26.9741,,26.9751,,0.6342,85.3384,,7.537,,1.9043E+00,,1.0000E-12,,6.2571,6.2571,0.8176,,4.715,25.983,,,,,,,,,,,,
CalCOFI,2007SR,025,26,2007_025u,18-Jul-2020 10:25:27,18-Jul-2020 02:25:27,32.65180,-119.48166,090.0 053.0,090.0,053.0,468.000,471.847,,6.3072,,6.3066,,6.3069,34.3095,,34.3097,34.3110,,34.3126,34.3112,0.3231,,0.3199,0.3490,1.7965,,0.3476,0.3157,0.3324,14.051,14.1797,39.7612,78.127,,41.7434,40.7523,0.0314,,,,,,,,26.9731,,26.9743,,0.6339,85.3442,,7.537,,1.9043E+00,,1.0000E-12,,6.2651,6.2645,0.8176,,4.689,26.071,,,,,,,,,,,,
CalCOFI,2007SR,025,26,2007_025u,18-Jul-2020 10:25:28,18-Jul-2020 02:25:28,32.65180,-119.48166,090.0 053.0,090.0,053.0,467.000,470.838,,6.3163,,6.3163,,6.3163,34.3089,,34.3091,34.3102,,34.3118,34.3105,0.3276,,0.3246,0.3537,1.7957,,0.3457,0.3133,0.3335,14.248,14.3854,39.8777,78.090,,41.6864,40.7821,0.0317,,,,,,,,26.9714,,26.9724,,0.6343,85.3368,,7.537,,1.9043E+00,,1.0000E-12,,6.2743,6.2742,0.8176,,4.756,26.064,,,,,,,,,,,,
CalCOFI,2007SR,025,26,2007_025u,18-Jul-2020 10:25:29,18-Jul-2020 02:25:29,32.65180,-119.48166,090.0 053.0,090.0,053.0,466.000,469.828,,6.3284,,6.3292,,6.3288,34.3083,,34.3085,34.3096,,34.3112,34.3099,0.3299,,0.3270,0.3562,1.7935,,0.3404,0.3069,0.3316,14.348,14.4898,39.9368,77.992,,41.5355,40.7362,0.0316,,,,,,,,26.9693,,26.9703,,0.6340,85.3432,,7.537,,1.9043E+00,,1.0000E-12,,6.2864,6.2872,0.8176,,4.790,26.039,,,,,,,,,,,,
CalCOFI,2007SR,025,26,2007_025u,18-Jul-2020 10:25:30,18-Jul-2020 02:25:30,32.65180,-119.48166,090.0 053.0,090.0,053.0,465.000,468.819,,6.3403,,6.3416,,6.3410,34.3069,,34.3071,34.3080,,34.3096,34.3084,0.3358,,0.3332,0.3624,1.7926,,0.3383,0.3043,0.3334,14.605,14.7581,40.0888,77.957,,41.4816,40.7852,0.0308,,,,,,,,26.9667,,26.9674,,0.6337,85.3484,,7.538,,1.9043E+00,,1.0000E-12,,6.2984,6.2997,0.8176,,4.877,26.035,,,,,,,,,,,,
CalCOFI,2007SR,025,26,2007_025u,18-Jul-2020 10:25:31,18-Jul-2020 02:25:31,32.65180,-119.48166,090.0 053.0,090.0,053.0,464.000,467.809,,6.3554,,6.3558,,6.3556,34.3049,,34.3051,34.3061,,34.3077,34.3064,0.3397,,0.3373,0.3666,1.7918,,0.3364,0.3019,0.3343,14.772,14.9324,40.1875,77.919,,41.4231,40.8053,0.0312,,,,,,,,26.9632,,26.9640,,0.6333,85.3567,,7.538,,1.9043E+00,,1.0000E-12,,6.3135,6.3139,0.8176,,4.935,26.030,,,,,,,,,,,,
CalCOFI,2007SR,025,26,2007_025u,18-Jul-2020 10:25:32,18-Jul-2020 02:25:32,32.65180,-119.48166,090.0 053.0,090.0,053.0,463.000,466.800,,6.3607,,6.3606,,6.3607,34.3038,,34.3040,34.3050,,34.3066,34.3053,0.3380,,0.3355,0.3648,1.7913,,0.3352,0.3004,0.3326,14.699,14.8562,40.1444,77.900,,41.3939,40.7692,0.0316,,,,,,,,26.9616,,26.9625,,0.6331,85.3621,,7.538,,1.9043E+00,,1.0000E-12,,6.3189,6.3188,0.8176,,4.911,26.026,,,,,,,,,,,,